Estación Meteorológica de la Universidad de Murcia
Estación Meteorológica de la Universidad de Murcia
Universidad de Murcia
 

Temperatura y Humedad del sueloTemperatura y Humedad del suelo

 

Temperatura del suelo máxima: 34,2 ºC a las 15:14:00 del día 22/06/2018
Temperatura del suelo mínima: 17,9 ºC a las 05:13:00 del día 22/06/2018
Humedad del suelo máxima: 30,6 % a las 03:57:00 del día 22/06/2018
Humedad del suelo mínima: 27,5 % a las 06:21:00 del día 22/06/2018

||Temperatura del suelo máxima últimos meses|| ---- ||Temperatura del suelo mínima últimos meses||

----||Humedad del suelo máxima últimos meses|| ---- ||Humedad del suelo mínima últimos meses||


Temperatura del suelo máxima

  • 1 - 34,2 ºC del día 22/06/2018
  • 2 - 33,2 ºC del día 21/06/2018
  • 3 - 32,3 ºC del día 20/06/2018
  • 4 - 31,6 ºC del día 19/06/2018
  • 5 - 32,2 ºC del día 18/06/2018
  • 6 - 32,5 ºC del día 17/06/2018
  • 7 - 32,3 ºC del día 16/06/2018
  • 8 - 32,2 ºC del día 15/06/2018
  • 9 - 31,2 ºC del día 14/06/2018
  • 10 - 30,7 ºC del día 13/06/2018
  • 11 - 30,4 ºC del día 12/06/2018
  • 12 - 30,4 ºC del día 11/06/2018
  • 13 - 30 ºC del día 10/06/2018
  • 14 - 29,4 ºC del día 09/06/2018
  • 15 - 30,5 ºC del día 08/06/2018
  • 16 - 29 ºC del día 07/06/2018
  • 17 - 27,6 ºC del día 06/06/2018
  • 18 - 27,8 ºC del día 05/06/2018
  • 19 - 30,3 ºC del día 04/06/2018
  • 20 - 28,4 ºC del día 03/06/2018
  • 21 - 27,4 ºC del día 02/06/2018
  • 22 - 29 ºC del día 01/06/2018
  • 23 - 30 ºC del día 31/05/2018
  • 24 - 27,7 ºC del día 30/05/2018
  • 25 - 28,8 ºC del día 29/05/2018
  • 26 - 29,8 ºC del día 28/05/2018
  • 27 - 27,5 ºC del día 27/05/2018
  • 28 - 28,5 ºC del día 26/05/2018
  • 29 - 29,9 ºC del día 25/05/2018
  • 30 - 28,6 ºC del día 24/05/2018
  • 31 - 29 ºC del día 23/05/2018
  • 32 - 30,6 ºC del día 22/05/2018
  • 33 - 28,9 ºC del día 21/05/2018
  • 34 - 28,3 ºC del día 20/05/2018
  • 35 - 27,6 ºC del día 19/05/2018
  • 36 - 27,5 ºC del día 18/05/2018
  • 37 - 26,4 ºC del día 17/05/2018
  • 38 - 26,9 ºC del día 16/05/2018
  • 39 - 26,3 ºC del día 15/05/2018
  • 40 - 26,2 ºC del día 14/05/2018
  • 41 - 25,4 ºC del día 13/05/2018
  • 42 - 30,1 ºC del día 12/05/2018
  • 43 - 28,5 ºC del día 11/05/2018
  • 44 - 26,3 ºC del día 10/05/2018
  • 45 - 30,8 ºC del día 09/05/2018
  • 46 - 29,9 ºC del día 08/05/2018
  • 47 - 27,6 ºC del día 07/05/2018
  • 48 - 28,1 ºC del día 06/05/2018
  • 49 - 28,4 ºC del día 05/05/2018
  • 50 - 26,3 ºC del día 04/05/2018
  • 51 - 28,5 ºC del día 03/05/2018
  • 52 - 26,5 ºC del día 02/05/2018
  • 53 - 23,7 ºC del día 01/05/2018
  • 54 - 26,1 ºC del día 30/04/2018
  • 55 - 23,8 ºC del día 29/04/2018
  • 56 - 28,7 ºC del día 28/04/2018
  • 57 - 32 ºC del día 27/04/2018
  • 58 - 27,4 ºC del día 26/04/2018
  • 59 - 21,4 ºC del día 25/04/2018
  • 60 - 28,5 ºC del día 24/04/2018

||Volver al inicio de la página||


Temperatura del suelo mínima

  • 1 - 17,9 ºC del día 22/06/2018
  • 2 - 18,1 ºC del día 21/06/2018
  • 3 - 17,1 ºC del día 20/06/2018
  • 4 - 17,2 ºC del día 19/06/2018
  • 5 - 17,9 ºC del día 18/06/2018
  • 6 - 18,6 ºC del día 17/06/2018
  • 7 - 17,8 ºC del día 16/06/2018
  • 8 - 16,2 ºC del día 15/06/2018
  • 9 - 16,3 ºC del día 14/06/2018
  • 10 - 17 ºC del día 13/06/2018
  • 11 - 16,7 ºC del día 12/06/2018
  • 12 - 16,1 ºC del día 11/06/2018
  • 13 - 17 ºC del día 10/06/2018
  • 14 - 16,4 ºC del día 09/06/2018
  • 15 - 15,7 ºC del día 08/06/2018
  • 16 - 12,9 ºC del día 07/06/2018
  • 17 - 14,7 ºC del día 06/06/2018
  • 18 - 17,6 ºC del día 05/06/2018
  • 19 - 15,9 ºC del día 04/06/2018
  • 20 - 13,9 ºC del día 03/06/2018
  • 21 - 15,8 ºC del día 02/06/2018
  • 22 - 16,4 ºC del día 01/06/2018
  • 23 - 13,9 ºC del día 31/05/2018
  • 24 - 15,8 ºC del día 30/05/2018
  • 25 - 16 ºC del día 29/05/2018
  • 26 - 15,1 ºC del día 28/05/2018
  • 27 - 15,7 ºC del día 27/05/2018
  • 28 - 16,2 ºC del día 26/05/2018
  • 29 - 17,3 ºC del día 25/05/2018
  • 30 - 14,4 ºC del día 24/05/2018
  • 31 - 14,9 ºC del día 23/05/2018
  • 32 - 13,2 ºC del día 22/05/2018
  • 33 - 12,5 ºC del día 21/05/2018
  • 34 - 12,2 ºC del día 20/05/2018
  • 35 - 12,5 ºC del día 19/05/2018
  • 36 - 12,1 ºC del día 18/05/2018
  • 37 - 11,9 ºC del día 17/05/2018
  • 38 - 11,6 ºC del día 16/05/2018
  • 39 - 11,2 ºC del día 15/05/2018
  • 40 - 9,9 ºC del día 14/05/2018
  • 41 - 11,9 ºC del día 13/05/2018
  • 42 - 14,7 ºC del día 12/05/2018
  • 43 - 14,3 ºC del día 11/05/2018
  • 44 - 15,6 ºC del día 10/05/2018
  • 45 - 14,6 ºC del día 09/05/2018
  • 46 - 13,4 ºC del día 08/05/2018
  • 47 - 11,8 ºC del día 07/05/2018
  • 48 - 11,8 ºC del día 06/05/2018
  • 49 - 14 ºC del día 05/05/2018
  • 50 - 10,6 ºC del día 04/05/2018
  • 51 - 11,2 ºC del día 03/05/2018
  • 52 - 6,8 ºC del día 02/05/2018
  • 53 - 6,9 ºC del día 01/05/2018
  • 54 - 7,9 ºC del día 30/04/2018
  • 55 - 10,1 ºC del día 29/04/2018
  • 56 - 13,5 ºC del día 28/04/2018
  • 57 - 12,5 ºC del día 27/04/2018
  • 58 - 14,7 ºC del día 26/04/2018
  • 59 - 15,4 ºC del día 25/04/2018
  • 60 - 14,7 ºC del día 24/04/2018

||Volver al inicio de la página||


Humedad del suelo máxima

  • 1 - 30,6 % del día 22/06/2018
  • 2 - 30,6 % del día 21/06/2018
  • 3 - 30,6 % del día 20/06/2018
  • 4 - 32,9 % del día 19/06/2018
  • 5 - 33,7 % del día 18/06/2018
  • 6 - 32,2 % del día 17/06/2018
  • 7 - 33,1 % del día 16/06/2018
  • 8 - 32,9 % del día 15/06/2018
  • 9 - 35 % del día 14/06/2018
  • 10 - 33,8 % del día 13/06/2018
  • 11 - 34,8 % del día 12/06/2018
  • 12 - 35,8 % del día 11/06/2018
  • 13 - 39,2 % del día 10/06/2018
  • 14 - 37 % del día 09/06/2018
  • 15 - 39,9 % del día 08/06/2018
  • 16 - 0 % del día 07/06/2018
  • 17 - 0 % del día 06/06/2018
  • 18 - 0 % del día 05/06/2018
  • 19 - 0 % del día 04/06/2018
  • 20 - 0 % del día 03/06/2018
  • 21 - 0 % del día 02/06/2018
  • 22 - 0 % del día 01/06/2018
  • 23 - 0 % del día 31/05/2018
  • 24 - 0 % del día 30/05/2018
  • 25 - 0 % del día 29/05/2018
  • 26 - 0 % del día 28/05/2018
  • 27 - 0 % del día 27/05/2018
  • 28 - 0 % del día 26/05/2018
  • 29 - 0 % del día 25/05/2018
  • 30 - 0 % del día 24/05/2018
  • 31 - 0 % del día 23/05/2018
  • 32 - 0 % del día 22/05/2018
  • 33 - 0 % del día 21/05/2018
  • 34 - 0 % del día 20/05/2018
  • 35 - 0 % del día 19/05/2018
  • 36 - 0 % del día 18/05/2018
  • 37 - 0 % del día 17/05/2018
  • 38 - 0 % del día 16/05/2018
  • 39 - 0 % del día 15/05/2018
  • 40 - 0 % del día 14/05/2018
  • 41 - 0 % del día 13/05/2018
  • 42 - 0 % del día 12/05/2018
  • 43 - 0 % del día 11/05/2018
  • 44 - 0 % del día 10/05/2018
  • 45 - 0 % del día 09/05/2018
  • 46 - 0 % del día 08/05/2018
  • 47 - 0 % del día 07/05/2018
  • 48 - 0 % del día 06/05/2018
  • 49 - 0 % del día 05/05/2018
  • 50 - 0 % del día 04/05/2018
  • 51 - 0 % del día 03/05/2018
  • 52 - 0 % del día 02/05/2018
  • 53 - 0 % del día 01/05/2018
  • 54 - 0 % del día 30/04/2018
  • 55 - 0 % del día 29/04/2018
  • 56 - 0 % del día 28/04/2018
  • 57 - 0 % del día 27/04/2018
  • 58 - 0 % del día 26/04/2018
  • 59 - 0 % del día 25/04/2018
  • 60 - 0 % del día 24/04/2018

||Volver al inicio de la página||


Humedad del suelo mínima

  • 1 - 27,5 % del día 22/06/2018
  • 2 - 27,4 % del día 21/06/2018
  • 3 - 27,6 % del día 20/06/2018
  • 4 - 28 % del día 19/06/2018
  • 5 - 28,1 % del día 18/06/2018
  • 6 - 28,5 % del día 17/06/2018
  • 7 - 28,8 % del día 16/06/2018
  • 8 - 29 % del día 15/06/2018
  • 9 - 29,8 % del día 14/06/2018
  • 10 - 30,2 % del día 13/06/2018
  • 11 - 30,9 % del día 12/06/2018
  • 12 - 31,7 % del día 11/06/2018
  • 13 - 32 % del día 10/06/2018
  • 14 - 33,1 % del día 09/06/2018
  • 15 - 34,1 % del día 08/06/2018
  • 16 - 999,9 % del día 07/06/2018
  • 17 - 999,9 % del día 06/06/2018
  • 18 - 999,9 % del día 05/06/2018
  • 19 - 999,9 % del día 04/06/2018
  • 20 - 999,9 % del día 03/06/2018
  • 21 - 999,9 % del día 02/06/2018
  • 22 - 999,9 % del día 01/06/2018
  • 23 - 999,9 % del día 31/05/2018
  • 24 - 999,9 % del día 30/05/2018
  • 25 - 999,9 % del día 29/05/2018
  • 26 - 999,9 % del día 28/05/2018
  • 27 - 999,9 % del día 27/05/2018
  • 28 - 999,9 % del día 26/05/2018
  • 29 - 999,9 % del día 25/05/2018
  • 30 - 999,9 % del día 24/05/2018
  • 31 - 999,9 % del día 23/05/2018
  • 32 - 999,9 % del día 22/05/2018
  • 33 - 999,9 % del día 21/05/2018
  • 34 - 999,9 % del día 20/05/2018
  • 35 - 999,9 % del día 19/05/2018
  • 36 - 999,9 % del día 18/05/2018
  • 37 - 999,9 % del día 17/05/2018
  • 38 - 999,9 % del día 16/05/2018
  • 39 - 999,9 % del día 15/05/2018
  • 40 - 999,9 % del día 14/05/2018
  • 41 - 999,9 % del día 13/05/2018
  • 42 - 999,9 % del día 12/05/2018
  • 43 - 999,9 % del día 11/05/2018
  • 44 - 999,9 % del día 10/05/2018
  • 45 - 999,9 % del día 09/05/2018
  • 46 - 999,9 % del día 08/05/2018
  • 47 - 999,9 % del día 07/05/2018
  • 48 - 999,9 % del día 06/05/2018
  • 49 - 999,9 % del día 05/05/2018
  • 50 - 999,9 % del día 04/05/2018
  • 51 - 999,9 % del día 03/05/2018
  • 52 - 999,9 % del día 02/05/2018
  • 53 - 999,9 % del día 01/05/2018
  • 54 - 999,9 % del día 30/04/2018
  • 55 - 999,9 % del día 29/04/2018
  • 56 - 999,9 % del día 28/04/2018
  • 57 - 999,9 % del día 27/04/2018
  • 58 - 999,9 % del día 26/04/2018
  • 59 - 999,9 % del día 25/04/2018
  • 60 - 999,9 % del día 24/04/2018

 

|| Temperatura Ambiente|| Humedad relativa|| Velocidad y dirección del viento|| Precipitación|| Radiación Solar Global y PAR|| Presión atmosférica|| Más información|| Volver a la página principal|| Volver al inicio de la página||


Estación Meteorológica de la Universidad de Murcia
http://estacion.um.es/
Informacion actualizada a: 23/06/2018 a las 23:08:00